Regional Weather Roundup
Issued by NWS State College, PA

Home | Current Version | Previous Version | Graphics & Text | Print | Product List | Glossary On
Versions: 1 2 3 4 5 6 7 8 9 10 11 12 13 14 15 16 17 18 19 20 21 22 23 24 25 26 27 28 29 30 31 32 33 34 35 36 37 38 39 40 41 42 43 44 45 46 47 48 49 50
000
ASUS41 KCTP 212210
RWRCTP

REGIONAL WEATHER ROUNDUP
NATIONAL WEATHER SERVICE STATE COLLEGE PA
500 PM EST SUN DEC 21 2014

Note: "fair" indicates few or no clouds below 12,000 feet with no
significant weather and/or obstructions to visibility.

* = STATION THAT DOES NOT REPORT PRECIPITATION /E.G. RAIN...SNOW...ETC/
    THUNDER OR FOG.

PAZ002>004-007>009-013>016-020>023-029>032-212300-
WESTERN PENNSYLVANIA

CITY           SKY/WX    TMP DP  RH WIND       PRES   REMARKS
ERIE           CLOUDY    32  21  64 S3        30.27R
MEADVILLE      CLOUDY    30  21  69 CALM      30.23R
FRANKLIN*      CLOUDY    28  19  69 SE5       30.24S
NEW CASTLE       N/A     30  22  72 CALM      30.26S
BEAVER COUNTY  CLOUDY    30  23  74 CALM      30.24R
BUTLER*        CLOUDY    30  21  69 E5        30.25S
PITTSBURGH INT MOCLDY    32  22  66 NE3       30.23S
PITTSBURGH     CLEAR     32  19  58 E3        30.22R
INDIANA*       CLEAR     28  23  80 CALM      30.27F
LATROBE        PTCLDY    30  23  74 VRB6      30.26R
WASHINGTON CO* NOT AVBL
$$

PAZ004>006-010>012-017>019-024>028-033>037-041-042-045-046-049>053-212300-
CENTRAL PENNSYLVANIA

CITY           SKY/WX    TMP DP  RH WIND       PRES   REMARKS
BRADFORD       CLOUDY    26  19  74 CALM      30.20S
DUBOIS         CLOUDY    28  21  75 CALM      30.21S
CLEARFIELD     PTCLDY    27  20  75 SE3       30.25R
JOHNSTOWN      CLEAR     27  19  72 E6        30.17S
ALTOONA        CLEAR     30  22  72 E3        30.24R
STATE COLLEGE  CLOUDY    30  21  69 CALM      30.27R
WILLIAMSPORT   CLEAR     32  20  61 W5        30.29R
SELINSGROVE    CLEAR     28  22  78 CALM      30.31R
FT INDIANTOWN  PTCLDY    31  22  68 NW1       30.31R
CAPITAL CITY   CLOUDY    33  22  63 N5        30.32R
HARRISBURG     MOCLDY    31  21  66 N6        30.31R
YORK           CLEAR     32  22  66 NE6       30.30R
$$

PAZ038>040-043-044-047-048-054-055-060>062-067>071-212300-
EASTERN PENNSYLVANIA

CITY           SKY/WX    TMP DP  RH WIND       PRES   REMARKS
SCRANTON       CLOUDY    30  19  63 N7        30.28R
MOUNT POCONO   CLOUDY    26  19  74 N6        30.21S
ALLENTOWN      CLEAR     31  20  63 N3        30.30R
QUAKERTOWN*    CLEAR     32  23  69 CALM      30.29S
READING        CLEAR     32  21  64 W3        30.30R
LANCASTER      CLOUDY    32  22  66 NW3       30.30R
COATESVILLE    CLEAR     32  25  74 NW5       30.29S
POTTSTOWN      CLEAR     31  21  66 NW3       30.31R
BLUE BELL      CLEAR     34  25  69 CALM      30.29R
DOYLESTOWN     MOCLDY    31  23  72 N3        30.29R
WILLOW GROVE   NOT AVBL
NORTH PHILA    CLEAR     35  21  56 NE6       30.32R
PHILADELPHIA   PTCLDY    37  21  52 NW8       30.32R
$$


USA.gov is the U.S. government's official web portal to all federal, state and local government web resources and services.